Flag for U.S.A. Weather past 2 weeks in South Bend, Indiana, U.S.A.

Now
56 °F

Overcast.


Feels Like: 56 °F
Forecast: 46 / 63 °F
Wind: 3 mph from Southwest

Location: Michiana Regional Airport

Current Time: Sep 15, 2014 at 9:00:31 PM

Latest Report: Sep 15, 2014 at 7:54 PM


Visibility: 10 mi

Pressure: 30.10 "Hg

Humidity: 90%

Dew point: 53 °F

Location of South BendLocation

Historic Weather in South Bend — Graph

°F

South Bend temperature yesterday

Maximum temperature yesterday: 64 °F (at 3:54 PM)
Minimum temperature yesterday: 43 °F (at 1:54 AM)
Average temperature yesterday: 54 °F

Past Weeks' High & Low Weather Summary

 TemperatureHumidityPressure
High91 °F (Sep 5, 2:54 PM)94% (Sep 6, 4:54 AM)30.36 "Hg (Sep 6, 4:54 AM)
Low43 °F (Sep 14, 1:54 AM)37% (Sep 7, 4:54 PM)29.58 "Hg (Sep 10, 3:54 PM)
Average65 °F75%30.05 "Hg
* Reported Aug 31 7:54 PM — Sep 15 7:54 PM, South Bend, Weather by CustomWeather, © 2014

Note: Actual official high and low records may vary slightly from our data, if they occured in-between our weather recording intervals... More about our weather records

Advertising

South Bend weather history for previous 24 hours

 ConditionsComfort  
Time TempWeatherWind HumidityBarometerVisibility
7:54 PM
Sep 15
56 °FOvercast.3 mph90%30.10 "Hg10 mi
6:54 PM56 °FMostly cloudy.5 mph90%30.12 "Hg9 mi
5:54 PM56 °FOvercast.6 mph90%30.11 "Hg10 mi
4:54 PM56 °FLight rain. Overcast.5 mph87%30.11 "Hg10 mi
3:54 PM59 °FOvercast.7 mph72%30.10 "Hg10 mi
2:54 PM60 °FOvercast.10 mph69%30.11 "Hg10 mi
1:54 PM59 °FOvercast.6 mph75%30.14 "Hg10 mi
12:54 PM58 °FOvercast.7 mph78%30.16 "Hg10 mi
11:54 AM58 °FOvercast.12 mph78%30.17 "Hg10 mi
10:54 AM57 °FPartly sunny.9 mph81%30.16 "Hg10 mi
9:54 AM53 °FLight rain. Mostly cloudy.5 mph86%30.16 "Hg10 mi
8:54 AM52 °FOvercast.3 mph89%30.19 "Hg10 mi
7:54 AM51 °FLight rain. Overcast.No wind89%30.19 "Hg8 mi
6:54 AM50 °FPassing clouds.No wind86%30.19 "Hg10 mi
5:54 AM49 °FClear.3 mph90%30.18 "Hg10 mi
4:54 AM48 °FClear.3 mph89%30.19 "Hg10 mi
3:54 AM47 °FClear.No wind90%30.20 "Hg10 mi
2:54 AM47 °FClear.No wind90%30.21 "Hg10 mi
1:54 AM48 °FClear.No wind86%30.21 "Hg10 mi
12:54 AM49 °FClear.No wind86%30.21 "Hg10 mi
11:54 PM
Sep 14
51 °FClear.No wind83%30.21 "Hg10 mi
10:54 PM50 °FClear.No wind83%30.21 "Hg10 mi
9:54 PM52 °FClear.No wind80%30.21 "Hg10 mi
Weather by CustomWeather, © 2014

See weather overviewHow to use our weather pages